Location: Boullarre
(49.1305°N, 3.0047°E)
Time: 20:17:37
(UTC+00:00)

ISS - Pass Details

Date: 25 September 2024
Orbit: 411 x 423 km, 51.6° (Epoch: 14 October)

Event Time Altitude Azimuth Distance (km) Brightness Sun altitude
Rises 19:27:58 0° 290° (WNW) 2,370 1.8 -18.4°
Reaches altitude 10° 19:30:06 10° 286° (WNW) 1,506 0.3 -18.7°
Maximum altitude 19:33:25 55° 207° (SSW) 516 -3.4 -19.2°
Enters shadow 19:33:42 52° 184° (S) 532 -3.4 -19.3°
